This is the latest recevied weather packets stored in our database for station/object SP4IM-13. If no packets are shown the sender has not sent any weather packets the latest 10 day(s).
| Time | Temp. | Humidity | Pressure | Rain* | Wind** | Luminosity | Snow |
|---|---|---|---|---|---|---|---|
| 1778045407 | 12.78° C | 77% | 1005 hPa | - | - | - | - |
| 1778044804 | 12.22° C | 76% | 1005 hPa | - | - | - | - |
| 1778044205 | 12.22° C | 75% | 1005 hPa | - | - | - | - |
| 1778043608 | 11.67° C | 73% | 1005 hPa | - | - | - | - |
| 1778043003 | 11.67° C | 72% | 1005 hPa | - | - | - | - |
| 1778042405 | 11.11° C | 76% | 1005 hPa | - | - | - | - |
| 1778041807 | 11.11° C | 82% | 1005 hPa | - | - | - | - |
| 1778041204 | 11.67° C | 90% | 1005 hPa | - | - | - | - |
| 1778040603 | 11.11° C | 91% | 1005 hPa | - | - | - | - |
| 1778040003 | 10.56° C | 90% | 1005 hPa | - | - | - | - |
| 1778039405 | 10.56° C | 91% | 1005 hPa | - | - | - | - |
| 1778038805 | 10.56° C | 91% | 1005 hPa | - | - | - | - |
| 1778038204 | 10.56° C | 91% | 1005 hPa | - | - | - | - |
| 1778037606 | 10.56° C | 90% | 1005 hPa | - | - | - | - |
| 1778037005 | 10.56° C | 90% | 1005 hPa | - | - | - | - |
| 1778036406 | 10.56° C | 90% | 1005 hPa | - | - | - | - |
| 1778035803 | 10.56° C | 90% | 1005 hPa | - | - | - | - |
| 1778035202 | 10.56° C | 90% | 1005 hPa | - | - | - | - |
| 1778034603 | 11.11° C | 90% | 1005 hPa | - | - | - | - |
| 1778034003 | 11.11° C | 90% | 1005 hPa | - | - | - | - |
| 1778033402 | 11.11° C | 90% | 1005 hPa | - | - | - | - |
| 1778032802 | 11.11° C | 91% | 1005 hPa | - | - | - | - |
| 1778032203 | 11.67° C | 92% | 1005 hPa | - | - | - | - |
| 1778031602 | 11.67° C | 92% | 1005 hPa | - | - | - | - |
| 1778031002 | 11.67° C | 93% | 1005 hPa | - | - | - | - |
* Rain since midnight (hover to see other rain measurements)
** Current wind speed in m/s (hover to see current wind gust speed)